Regional Weather Roundup
Issued by NWS Newport/Morehead, NC

Current Version | Previous Version | Text Only | Print | Product List | Glossary Off
Versions: 1 2 3 4 5 6 7 8 9 10 11 12 13 14 15 16 17 18 19 20 21 22 23 24 25 26 27 28 29 30 31 32 33 34 35 36 37 38 39 40 41 42 43 44 45 46 47 48 49 50
000 ASUS42 KMHX 191813 RWRMHX WEATHER ROUNDUP FOR EASTERN NORTH CAROLINA NATIONAL WEATHER SERVICE NEWPORT/MOREHEAD CITY NC 100 PM EST SUN NOV 19 2017 NOTE: "FAIR" INDICATES FEW OR NO CLOUDS BELOW 12,000 FEET WITH NO SIGNIFICANT WEATHER AND/OR OBSTRUCTIONS TO VISIBILITY NCZ015>017-031-032-045>047-102-103-191900- NORTH COAST CITY SKY/WX TMP DP RH WIND PRES REMARKS EDENTON SUNNY 62 40 44 NW13 29.73F ELIZABETH CITY SUNNY 63 40 42 NW17 29.71R KITTY HAWK CLEAR 59 41 51 W13G21 29.68F MANTEO SUNNY 59 44 56 NW10G17 29.71S $$ NCZ045>047-081-094-103-104-191900- CENTRAL COAST CITY SKY/WX TMP DP RH WIND PRES REMARKS FRISCO MOSUNNY 61 46 57 NW13G24 29.70S $$ NCZ095-097-098-100-101-191900- SOUTHERN COAST CITY SKY/WX TMP DP RH WIND PRES REMARKS BEAUFORT MOSUNNY 63 44 50 N13 29.72F CEDAR ISLAND NOT AVBL JACKSONVILLE NOT AVBL PINEY ISLAND NOT AVBL WILMINGTON SUNNY 65 40 39 NW14G24 29.77S $$ NCZ011>013-027>030-043-044-078>080-089-090>093-098-191900- COASTAL PLAIN CITY SKY/WX TMP DP RH WIND PRES REMARKS AHOSKIE SUNNY 57 31 36 N6 29.75S CLINTON SUNNY 61 38 41 NW7 29.80F ELIZABETHTOWN NOT AVBL GOLDSBORO SUNNY 62 33 33 NW13 29.76F GREENVILLE SUNNY 59 32 36 NW9G18 29.79F HAVELOCK NOT AVBL KENANSVILLE NOT AVBL KINSTON SUNNY 61 34 36 NW13G21 29.78F NEW BERN SUNNY 61 39 44 NW14G24 29.75F RICHLANDS SUNNY 63 36 36 N10 29.77F ROCKY MOUNT SUNNY 59 32 36 NW17G23 29.78F WASHINGTON SUNNY 61 36 39 NW12G21 29.75S WHITEVILLE SUNNY 63 37 38 NW6 29.80F $$ AMZ130-135-150-152-154-156-158-170-250-252-270-ANZ085-086-088-633-658-670-191900- MARINE OBSERVATIONS STATION/POSITION TIME TEMP WIND PRES WAVE SWELL AIR SEA DIR/SP/G HT/PER HT/PER (UTC) (F) (DEG/KT/KT) (MB) (FT/S) (FT/S) CHESAPEAKE LIGHT NOT AVBL 64 E VA BEACH 1750 57 62 310/ 21/ 25 1004.6 8/ 5 3/ 9 DUCK 1742 59 61 310/ 12/ 14 1004.9 2 E DUCK 1800 62 N/A 2/ 4 OREGON INLET 1742 59 57 290/ 13/ 20 1005.3 13E OREGON INLT 1748 63 N/A 5/ 5 3/ 8 HATTERAS CG 1742 59 61 320/ 19/ 22 1005.5 DIAMOND BUOY 1800 60 65 310/ 21/ 25 1005.7 CAPE LOOKOUT 1800 310/ 14/ 19 1006.7 BEAUFORT LAB 1742 60 61 330/ 8/ 14 1006.5 30 SE NEW RVR IN 1708 62 68 310/ 16/ 21 1006.9 30 SE NEW RVR IN 1800 68 N/A 9/ 8 2/11 27 SE WRIGHTSVLE 1708 62 68 320/ 17/ 25 1007.4 5 SE WRIGHTSVLE 1708 62 64 320/ 14/ 21 1007.9 225 S CAPE HAT 1750 76 76 220/ 27/ 33 1007.1 8/ 6 2/13 41 SE CHARLESTON 1800 64 74 300/ 14/ 17 1009.4 $$

USA.gov is the U.S. government's official web portal to all federal, state and local government web resources and services.